Tracking 25710 objects as of 7-Jul-2022
HD Live streaming from Space Station
objects crossing your sky now

FENGYUN 1C DEB

Track FENGYUN 1C DEB now!
10-day predictions


NORAD ID: 30892
Int'l Code: 1999-025AYE
Perigee: 816.7 km
Apogee: 876.5 km
Inclination: 99.7 °
Period: 101.7 minutes
Semi major axis: 7217 km
RCS: 0.0064 m2 (small)
Launch date: May 10, 1999
Source: People's Republic of China (PRC)
Launch site: Taiyaun Space Center, China (TSC)

Note: This is SATELLITE DEBRIS
aabbcc
Your satellite tracking list
Your tracking list is empty




NASA's NSSDC Master Catalog

Two Line Element Set (TLE):
1 30892U 99025AYE 22185.76408479  .00000263  00000-0  15884-3 0  9990
2 30892  99.7197   2.5166 0041418  86.7541 273.8367 14.15843622464999
Source of the keplerian elements: AFSPC